KOREASAT 6

Last updated on Thu Sep 10 2026 00:02:56 GMT+0000 (Coordinated Universal Time)

1 37265U 10070B 26252.60114354 .00000000 00000+0 00000+0 0 9990 2 37265 0.0277 147.7083 0002022 39.3329 177.9124 1.00269272 57615
UTC large
Height (km)
Speed (km/s)
/
Latitude / Longitude
Inclination (degrees)
Orbital Period (minutes)
Azimuth
Elevation
Range (km)
Doppler Factor

Next 0 passes for location: London (51.5072 / 0.1276)

No passes found over London.
KOREASAT 6